Location: �clusier
(49.9361°N, 2.7869°E)
Time: 08:18:46
(UTC+00:00)

Meteor 1-21 Rocket - Pass Details

Date: 16 June 2021
Orbit: 834 x 906 km, 81.2° (Epoch: 02 August)

Event Time Altitude Azimuth Distance (km) Brightness Sun altitude
Exits shadow 23:39:35 26° 195° (SSW) 1,634 5.1 -16.6°
Maximum altitude 23:42:56 84° 281° (W) 869 4.2 -16.7°
Drops below altitude 10° 23:48:42 10° 11° (NNE) 2,529 7.9 -16.7°
Sets 23:51:10 0° 12° (NNE) 3,482 9.0 -16.7°
